Aulvik National Park, Northwest Territories

7:02 AM MST on February 22, 2017 (GMT -0700)
Aulavik National Park

Weather History for CWSQ - March, 2014

Change the Weather History Date:

Sunday, March 16, 2014

  Actual Average Record
Temperature  
Mean Temperature -8 °F -  
Max Temperature 2 °F - - ()
Min Temperature -17 °F - - ()
Degree Days  
Heating Degree Days 72    
Moisture  
Dew Point -12 °F    
Average Humidity 78    
Maximum Humidity 82    
Minimum Humidity 68    
Precipitation  
Precipitation 0.00 in - - ()
Sea Level Pressure  
Sea Level Pressure 29.95 in    
Wind  
Wind Speed 8 mph ()    
Max Wind Speed 22 mph    
Max Gust Speed -    
T = Trace of Precipitation, MM = Missing Value Source: Averaged Metar Reports

Daily Weather History Graph

Daily Weather History Graph

Search for Another Location

Airport or City:

Trip Planner

Search our weather history database for the weather conditions in past years. The results will help you decide how hot, cold, wet, or windy it might be!

Date:

Astronomy

Mar. 16, 2014 Rise Set
Actual Time 8:19 AM MDT 8:00 PM MDT
Civil Twilight 7:03 AM MDT 9:17 PM MDT
Nautical Twilight 5:23 AM MDT 10:58 PM MDT
Astronomical Twilight 2:41 AM MDT 1:35 AM MDT
Moon 9:02 PM MDT (3/16) 7:49 AM MDT (3/16)
Length of Visible Light 14h 14m
Length of Day
11h 41m
Full, 100% of the Moon is Illuminated
Mar 16
Full
Mar 23
Last Quarter
Mar 30
New
Apr 7
First Quarter
Apr 15
Full

Hourly Weather History & Observations

Time (MDT) Temp. Windchill Dew Point Humidity Pressure Visibility Wind Dir Wind Speed Gust Speed Precip Events Conditions
12:00 AM -12 °F - -16 °F 70% 29.90 in - SSE 8.1 mph - -  
12:00 AM -11.7 °F -29.7 °F -16.4 °F 80% 29.90 in - SSE 9.2 mph - N/A   Unknown
1:00 AM -11.2 °F -29.0 °F -16.1 °F 79% 29.90 in - SSE 9.2 mph - N/A   Unknown
3:00 AM -12.3 °F - -17.0 °F 80% 29.92 in - NW 1.2 mph - N/A   Unknown
5:00 AM -13.5 °F - -18.0 °F 80% 29.94 in - Calm Calm - N/A   Unknown
6:00 AM -16 °F - -21 °F 69% 29.94 in - North 6.9 mph - -  
6:00 AM -16.1 °F -32.3 °F -20.6 °F 80% 29.94 in - North 6.9 mph - N/A   Unknown
7:00 AM -15.9 °F -26.0 °F -20.9 °F 78% 29.95 in - North 3.5 mph - N/A   Unknown
8:00 AM -15.9 °F -32.1 °F -20.7 °F 79% 29.95 in - North 6.9 mph - N/A   Unknown
9:00 AM -13.9 °F -29.7 °F -18.8 °F 79% 29.95 in - North 6.9 mph - N/A   Unknown
10:00 AM -11.0 °F -20.4 °F -16.2 °F 78% 29.94 in - NNE 3.5 mph - N/A   Unknown
11:00 AM -8.9 °F -23.6 °F -13.5 °F 80% 29.94 in - North 6.9 mph - N/A   Unknown
12:00 PM -5 °F - -10 °F 68% 29.94 in - North 6.9 mph - -  
12:00 PM -5.4 °F -19.5 °F -10.1 °F 80% 29.94 in - North 6.9 mph - N/A   Unknown
1:00 PM -4.0 °F -22.1 °F -8.1 °F 82% 29.95 in - North 11.5 mph - N/A   Unknown
2:00 PM -1.3 °F - -6.5 °F 79% - - NW 2.3 mph - N/A   Unknown
3:00 PM 1.2 °F - -5.4 °F 74% 29.96 in - WSW 2.3 mph - N/A   Unknown
4:00 PM 0.3 °F -14.8 °F -4.9 °F 79% - - NE 9.2 mph - N/A   Unknown
5:00 PM -0.6 °F -22.5 °F -4.9 °F 82% 29.96 in - ENE 19.6 mph - N/A   Unknown
6:00 PM -1 °F - -5 °F 73% 29.97 in - ENE 20.7 mph - -  
6:00 PM -0.9 °F -24.1 °F -5.3 °F 82% 29.97 in - ENE 21.9 mph - N/A   Unknown
7:00 PM -0.4 °F -22.3 °F -4.7 °F 82% 29.98 in - ENE 19.6 mph - N/A   Unknown
8:00 PM -1.1 °F -23.2 °F -5.6 °F 81% 29.99 in - ENE 19.6 mph - N/A   Unknown
9:00 PM -1.5 °F -22.6 °F -6.0 °F 81% 29.99 in - ENE 17.3 mph - N/A   Unknown
10:00 PM -1.8 °F -23.0 °F -6.3 °F 81% 29.99 in - ENE 17.3 mph - N/A   Unknown
11:00 PM -2.9 °F -23.8 °F -7.6 °F 80% 29.99 in - ENE 16.1 mph - N/A   Unknown